[[{"header":{"parameterUnit":"m.s-1","parameterCategory":1,"la1":30.2991,"la2":30.254,"lo1":-89.0895,"lo2":-89.0444,"dy":0.0017,"dx":0.0017,"nx":28,"ny":28,"refTime":"2024-05-20T21:00:00:Z","depth":0,"parameterNumber":2,"parameterNumberName":"U-component_of_WINDS"},"data":[0,0,0,0,0,0,0,0,0,0,0,0,0,0,0,0,0,0,0,0,0,0,0,0,0,0,0,0,0,0,0,0,0,0,0,0,0,0,0,0,0,0,0,0,0,0,0,0,0,0,0,0,0,0,0,0,0,0,-2.5042,-2.5042,0,-2.506,-2.506,-2.506,-2.5013,-2.5011,-2.501,-2.5008,-2.5027,-2.5029,-2.5031,0,0,0,0,0,0,0,0,0,0,0,0,0,-2.4968,-2.497,-2.5042,-2.5042,-2.5043,-2.506,-2.506,-2.506,-2.5013,-2.5011,-2.5009,-2.5007,-2.5026,-2.5029,-2.5031,0,0,0,0,0,0,0,0,0,0,0,0,0,-2.4995,-2.497,-2.5042,-2.5021,-2.5019,-2.506,-2.506,-2.506,-2.5013,-2.5011,-2.5009,-2.5007,-2.5026,-2.5028,-2.5031,-2.5093,0,0,-2.504,-2.5041,0,0,0,0,0,0,0,0,-2.4993,-2.4997,-2.5024,-2.5022,-2.5021,-2.5032,-2.5041,-2.5071,-2.5014,-2.5016,-2.5008,-2.5006,-2.503,-2.5033,-2.5041,-2.5094,-2.5095,-2.504,-2.5042,-2.5043,-2.5044,0,0,0,0,0,0,0,-2.4991,-2.4996,-2.5049,-2.5024,-2.5022,-2.5011,-2.5012,-2.5046,-2.5035,-2.5015,-2.5012,-2.5014,-2.5029,-2.5038,-2.5041,-2.5095,-2.504,-2.5042,-2.5044,-2.5045,-2.52,-2.5202,0,0,0,0,0,0,-2.4992,-2.4995,-2.5049,-2.505,-2.5001,-2.5014,-2.5015,-2.503,-2.5035,-2.5033,-2.5016,-2.5012,-2.5035,-2.5038,-2.5041,-2.5114,-2.5043,-2.5046,-2.5047,-2.5198,-2.5201,-2.5203,0,0,0,0,0,0,-2.4991,-2.4997,-2.5048,-2.5021,-2.5027,-2.5018,-2.5035,-2.5032,-2.5041,-2.5036,-2.5033,-2.5028,-2.5033,-2.5038,-2.5081,-2.5114,-2.5047,-2.5049,-2.5195,-2.5199,-2.5202,-2.526,0,0,0,0,0,0,-2.4989,-2.4997,-2.502,-2.5022,-2.5029,-2.5087,-2.5037,-2.5034,-2.5046,-2.5041,-2.5046,-2.5044,-2.5032,-2.5077,-2.5083,-2.5117,-2.5052,-2.5192,-2.5196,-2.5201,-2.5255,-2.5265,-2.5274,0,0,0,0,0,-2.4986,-2.5036,-2.5022,-2.5028,-2.5057,-2.5089,-2.5092,-2.5076,-2.5049,-2.5072,-2.5069,-2.5044,-2.511,-2.5081,-2.5089,-2.5123,-2.519,-2.5195,-2.52,-2.5251,-2.5263,-2.5273,0,0,0,0,0,0,-2.5038,-2.5036,-2.502,-2.5072,-2.5081,-2.508,-2.5109,-2.509,-2.5107,-2.5101,-2.5081,-2.5082,-2.5129,-2.5131,-2.5099,-2.5184,-2.5145,-2.5152,-2.5181,-2.5192,-2.5202,-2.52,-2.5054,0,0,0,0,0,-2.5056,-2.5081,-2.5078,-2.5124,-2.5129,-2.5119,-2.5132,-2.5119,-2.5127,-2.5131,-2.513,-2.514,-2.5162,-2.5178,-2.5198,-2.5255,-2.5256,-2.5283,-2.5292,-2.53,-2.5306,-2.5336,-2.5348,-2.5221,-2.5221,-2.5221,0,0,-2.5092,-2.5094,-2.5111,-2.5134,-2.514,-2.5167,-2.5122,-2.5152,-2.5172,-2.5135,-2.5176,-2.5176,-2.5185,-2.5236,-2.5258,-2.5238,-2.5341,-2.5307,-2.5313,-2.5315,-2.5343,-2.5355,-2.5366,-2.5225,-2.5224,-2.5223,0,0,-2.5172,-2.5176,-2.5215,-2.5221,-2.523,-2.5223,-2.5232,-2.5235,-2.5234,-2.5274,-2.5247,-2.527,-2.531,-2.5317,-2.5326,-2.541,-2.5388,-2.5417,-2.5466,-2.5496,-2.5506,-2.5514,-2.5544,-2.5555,-2.5424,-2.5424,-2.5424,0,-2.5216,-2.5255,-2.5237,-2.5269,-2.528,-2.5249,-2.5288,-2.5295,-2.531,-2.5318,-2.5296,-2.5345,-2.5349,-2.5401,-2.5421,-2.543,-2.544,-2.5416,-2.5506,-2.5514,-2.5522,-2.555,-2.5561,-2.5427,-2.5427,-2.5426,-2.5426,0,-2.5309,-2.5336,-2.5367,-2.5382,-2.5396,-2.5432,-2.542,-2.5437,-2.5423,-2.5418,-2.546,-2.5463,-2.5484,-2.5496,-2.5482,-2.5546,-2.5533,-2.5509,-2.5469,-2.5538,-2.5564,-2.5574,-2.5432,-2.5431,-2.543,-2.5429,0,0,-2.5421,-2.5426,-2.5438,-2.5444,-2.5452,-2.5473,-2.5507,-2.5527,-2.5542,-2.5554,-2.5582,-2.5616,-2.5594,-2.5604,-2.5592,-2.5618,-2.5683,-2.559,-2.559,-2.5607,-2.5753,-2.577,-2.5783,-2.5669,-2.5671,-2.5673,-2.5752,0,-2.5499,-2.5558,-2.5543,-2.5601,-2.5626,-2.5597,-2.5626,-2.5634,-2.5631,-2.5652,-2.5649,-2.5673,-2.5642,-2.5648,-2.5673,-2.567,-2.5712,-2.5664,-2.5695,-2.5696,-2.5693,-2.5796,-2.5815,-2.589,-2.5762,-2.5763,-2.5765,0,-2.5598,-2.5613,-2.5674,-2.5677,-2.5687,-2.5714,-2.5732,-2.5752,-2.5761,-2.5757,-2.5769,-2.5751,-2.5785,-2.5746,-2.5793,-2.5761,-2.5773,-2.5774,-2.5776,-2.5778,-2.5734,-2.58,-2.5913,-2.5924,-2.578,-2.5779,-2.5778,0,-2.5673,-2.5709,-2.575,-2.5756,-2.5762,-2.5781,-2.5784,-2.5791,-2.5804,-2.5819,-2.5827,-2.5847,-2.5857,-2.5873,-2.5861,-2.5834,-2.591,-2.587,-2.5907,-2.5907,-2.5924,-2.5923,-2.6039,-2.5933,-2.5933,-2.5932,-2.5932,0,-2.5762,-2.58,-2.5784,-2.5809,-2.5851,-2.5834,-2.5876,-2.5875,-2.5882,-2.5906,-2.5882,-2.5906,-2.5889,-2.5912,-2.5903,-2.5943,-2.5948,-2.5945,-2.5942,-2.5947,-2.5947,-2.5954,-2.5948,-2.5935,-2.5935,-2.5934,-2.5934,0,-2.5852,-2.5843,-2.5885,-2.5887,-2.5888,-2.5919,-2.592,-2.5944,-2.5939,-2.597,-2.5977,-2.5969,-2.5995,-2.5985,-2.6011,-2.6005,-2.6056,-2.6047,-2.6053,-2.6051,-2.6088,-2.6085,-2.6212,-2.6228,-2.6112,-2.6114,-2.6114,0,-2.5909,-2.5938,-2.5942,-2.5957,-2.5961,-2.5985,-2.5999,-2.5983,-2.5998,-2.601,-2.6032,-2.6055,-2.6073,-2.6114,-2.6112,-2.6132,-2.6123,-2.6166,-2.6125,-2.6129,-2.6123,-2.6121,-2.6123,-2.6174,-2.6175,-2.6176,-2.6177,0,-2.6011,-2.6005,-2.6024,-2.6043,-2.6059,-2.6073,-2.6084,-2.6098,-2.6083,-2.6101,-2.6126,-2.614,-2.6167,-2.619,-2.6209,-2.6212,-2.6192,-2.619,-2.62,-2.6204,-2.6207,-2.6205,-2.6075,-2.6187,-2.6186,-2.6185,-2.6185,-2.6184,-2.6086,-2.6109,-2.6116,-2.6139,-2.6146,-2.6158,-2.618,-2.6178,-2.6198,-2.6219,-2.6209,-2.6238,-2.6247,-2.6269,-2.6275,-2.6298,-2.6281,-2.6295,-2.6299,-2.6302,-2.6307,-2.6204,-2.6302,-2.6301,-2.6301,-2.6301,-2.6301,0,-2.6185,-2.6188,-2.621,-2.6226,-2.6244,-2.6224,-2.6236,-2.6253,-2.6279,-2.6288,-2.6306,-2.6335,-2.6357,-2.6356,-2.6377,-2.6396,-2.6387,-2.6402,-2.64,-2.6401,-2.6321,-2.631,-2.6408,-2.6408,-2.6408,-2.6408,-2.6408,-2.6408,-2.6239,-2.6279,-2.6274,-2.6316,-2.6319,-2.6347,-2.6356,-2.6366,-2.6373,-2.6407,-2.6425,-2.6425,-2.643,-2.6451,-2.6471,-2.647,-2.6478,-2.6496,-2.6492,-2.6417,-2.6407,-2.6396,-2.6386,-2.6498,-2.6498,-2.657,-2.6571,-2.6571]},{"header":{"parameterUnit":"m.s-1","parameterCategory":1,"la1":30.2991,"la2":30.254,"lo1":-89.0895,"lo2":-89.0444,"dy":0.0017,"dx":0.0017,"nx":28,"ny":28,"refTime":"2024-05-20T21:00:00:Z","depth":0,"parameterNumber":3,"parameterNumberName":"V-component_of_WINDS"},"data":[0,0,0,0,0,0,0,0,0,0,0,0,0,0,0,0,0,0,0,0,0,0,0,0,0,0,0,0,0,0,0,0,0,0,0,0,0,0,0,0,0,0,0,0,0,0,0,0,0,0,0,0,0,0,0,0,0,0,2.2701,2.2702,0,2.273,2.2731,2.2731,2.272,2.2719,2.2719,2.2718,2.2746,2.2748,2.2749,0,0,0,0,0,0,0,0,0,0,0,0,0,2.2635,2.2637,2.2701,2.2702,2.2702,2.273,2.2731,2.2731,2.272,2.2719,2.2719,2.2718,2.2746,2.2748,2.2749,0,0,0,0,0,0,0,0,0,0,0,0,0,2.2664,2.2637,2.2701,2.27,2.27,2.273,2.2731,2.2731,2.272,2.2719,2.2718,2.2718,2.2745,2.2747,2.2749,2.2782,0,0,2.2756,2.2757,0,0,0,0,0,0,0,0,2.2663,2.2667,2.27,2.27,2.27,2.2721,2.2718,2.2748,2.2721,2.2713,2.2718,2.2717,2.2738,2.2741,2.2749,2.2783,2.2784,2.2756,2.2757,2.2758,2.2758,0,0,0,0,0,0,0,2.2661,2.2665,2.2713,2.27,2.2701,2.2698,2.2701,2.2723,2.2731,2.2713,2.2713,2.2716,2.2738,2.2747,2.2749,2.2785,2.2756,2.2758,2.2759,2.276,2.2847,2.2848,0,0,0,0,0,0,2.2659,2.2664,2.2712,2.2713,2.2679,2.27,2.2703,2.2715,2.273,2.2732,2.2717,2.2716,2.2744,2.2747,2.275,2.2789,2.2758,2.276,2.2761,2.2846,2.2848,2.2849,0,0,0,0,0,0,2.2657,2.2663,2.2711,2.2688,2.2694,2.2702,2.2715,2.2716,2.2724,2.2733,2.2734,2.2724,2.2743,2.2747,2.2774,2.279,2.2761,2.2763,2.2845,2.2847,2.2848,2.2868,0,0,0,0,0,0,2.2655,2.2663,2.2675,2.2689,2.2695,2.2734,2.2716,2.2717,2.2728,2.2727,2.274,2.2742,2.2743,2.2771,2.2776,2.2792,2.2764,2.2844,2.2846,2.2848,2.2866,2.287,2.2873,0,0,0,0,0,2.2653,2.2679,2.2676,2.2682,2.2711,2.2735,2.2739,2.274,2.2729,2.2742,2.2748,2.2741,2.2788,2.2774,2.278,2.2797,2.2843,2.2845,2.2848,2.2864,2.2869,2.2873,0,0,0,0,0,0,2.2666,2.2681,2.2677,2.2708,2.2721,2.2733,2.2749,2.2745,2.2761,2.2758,2.2759,2.2762,2.279,2.2796,2.278,2.2829,2.2813,2.2817,2.2824,2.2829,2.2833,2.2831,2.2766,0,0,0,0,0,2.2673,2.2691,2.2703,2.2729,2.2736,2.2742,2.2752,2.2752,2.2764,2.2769,2.2777,2.2789,2.2807,2.2818,2.2834,2.2866,2.2869,2.2881,2.2885,2.2888,2.2891,2.2909,2.2914,2.2857,2.2857,2.2857,0,0,2.2686,2.2697,2.2708,2.2732,2.2742,2.2761,2.2746,2.2767,2.2781,2.2772,2.2799,2.2805,2.2818,2.2848,2.2861,2.2854,2.2908,2.2891,2.2894,2.2895,2.2912,2.2918,2.2922,2.2859,2.2858,2.2858,0,0,2.2721,2.2731,2.2754,2.2764,2.2779,2.2783,2.2789,2.2802,2.2806,2.2832,2.2827,2.2843,2.2873,2.2883,2.2892,2.2932,2.2926,2.2937,2.2957,2.2974,2.2979,2.2983,2.2997,2.3002,2.294,2.294,2.294,0,2.2736,2.2765,2.2766,2.2788,2.2799,2.2793,2.2816,2.2826,2.2845,2.2853,2.2844,2.2882,2.289,2.2923,2.2932,2.294,2.2946,2.2935,2.2978,2.2982,2.2986,2.3,2.3005,2.2941,2.2941,2.2941,2.2941,0,2.2783,2.2803,2.282,2.284,2.2852,2.2875,2.2879,2.2892,2.2891,2.2895,2.2922,2.2933,2.2951,2.2959,2.2958,2.2991,2.2986,2.2978,2.2962,2.2993,2.3006,2.3011,2.2943,2.2943,2.2942,2.2942,0,0,2.2826,2.2847,2.2853,2.2862,2.2879,2.2894,2.2916,2.2935,2.2946,2.296,2.2978,2.3004,2.2997,2.3007,2.3007,2.3022,2.3053,2.3012,2.3013,2.302,2.3091,2.3098,2.3104,2.305,2.3051,2.3052,2.309,0,2.2863,2.2902,2.2904,2.294,2.2959,2.2954,2.2973,2.2985,2.299,2.3007,2.3012,2.303,2.3019,2.3025,2.304,2.3046,2.3068,2.3044,2.3067,2.3068,2.3064,2.311,2.3117,2.3153,2.3095,2.3096,2.3097,0,2.291,2.2926,2.2964,2.2979,2.2986,2.3004,2.3022,2.3038,2.3051,2.3054,2.3066,2.3063,2.3086,2.307,2.3101,2.3085,2.3094,2.3099,2.31,2.3102,2.3084,2.3114,2.3164,2.317,2.3105,2.3104,2.3103,0,2.2939,2.297,2.2997,2.3004,2.3022,2.3034,2.3042,2.3054,2.3066,2.3081,2.3089,2.3106,2.3116,2.3129,2.3132,2.312,2.3163,2.3147,2.3166,2.3166,2.3175,2.3175,2.3228,2.3181,2.3181,2.3181,2.3181,0,2.2979,2.3003,2.301,2.3026,2.3052,2.3054,2.308,2.3087,2.3098,2.3116,2.3112,2.3129,2.3131,2.3148,2.315,2.3176,2.318,2.3183,2.3183,2.3183,2.3183,2.319,2.3187,2.3183,2.3182,2.3182,2.3182,0,2.3016,2.3021,2.305,2.3064,2.3068,2.3087,2.3099,2.3115,2.312,2.3142,2.3147,2.3155,2.3175,2.3179,2.3202,2.3204,2.3234,2.3232,2.323,2.323,2.3248,2.3247,2.3308,2.3316,2.3264,2.3264,2.3265,0,2.3041,2.3059,2.3076,2.3087,2.3096,2.3115,2.3127,2.3129,2.3142,2.3159,2.3173,2.3192,2.3208,2.324,2.3248,2.3266,2.3264,2.3284,2.3267,2.3266,2.3265,2.3264,2.3266,2.3288,2.3288,2.3289,2.3289,0,2.3086,2.3088,2.3106,2.3125,2.3139,2.3154,2.3168,2.3177,2.3182,2.3196,2.3217,2.3229,2.3254,2.3273,2.3291,2.3299,2.3295,2.3295,2.33,2.33,2.3299,2.33,2.3239,2.3293,2.3293,2.3292,2.3292,2.3292,2.3118,2.3134,2.3149,2.3168,2.3179,2.3192,2.3208,2.3215,2.3233,2.3253,2.3254,2.3276,2.329,2.3314,2.3322,2.334,2.3333,2.3341,2.3343,2.3345,2.3347,2.3296,2.3343,2.3343,2.3343,2.3343,2.3343,0,2.3163,2.3172,2.3191,2.3211,2.3226,2.3222,2.3237,2.325,2.327,2.3283,2.3299,2.3323,2.3343,2.3352,2.337,2.3383,2.3382,2.3388,2.3387,2.3389,2.3351,2.3345,2.3389,2.3389,2.3388,2.3388,2.3388,2.3388,2.3189,2.3216,2.322,2.3252,2.3261,2.3284,2.3293,2.3305,2.3315,2.3343,2.3359,2.3365,2.3376,2.3396,2.3413,2.3415,2.3422,2.343,2.3431,2.3396,2.3391,2.3387,2.3381,2.3431,2.3431,2.3467,2.3467,2.3467]}]]